Location: *
(48.8667°N, 2.3331°E)
Time: 09:41:20
(UTC+00:00)

Cosmos 2333 Rocket - Pass Details

Date: 09 April 2020
Orbit: 840 x 861 km, 70.8° (Epoch: 06 June)

Event Time Altitude Azimuth Distance (km) Brightness Sun altitude
Rises 23:34:47 0° 334° (NNW) 3,407 6.3 -33.0°
Reaches altitude 10° 23:37:25 10° 343° (NNW) 2,469 5.4 -33.0°
Enters shadow 23:42:32 38° 47° (NE) 1,269 3.3 -33.1°
